Home > Weather > Fayetteville > Past weeks

Flag for USA Past Weather in Fayetteville, North Carolina, USA — Yesterday and Last 2 Weeks

Now
68 °F

Clear.


Feels Like: 68 °F
Forecast: 66 / 90 °F
Wind: No wind

Location: Fayetteville Regional Airport

Current Time: Aug 25, 2016 at 6:08:14 AM

Latest Report: Aug 25, 2016 at 4:53 AM


Visibility: 10 mi

Pressure: 30.14 "Hg

Humidity: 84%

Dew Point: 63 °F

Location of FayettevilleLocation

Past Weather in Fayetteville — Graph

°F

Fayetteville Temperature Yesterday

Maximum temperature yesterday: 89 °F (at 3:53 PM)
Minimum temperature yesterday: 66 °F (at 5:53 AM)
Average temperature yesterday: 77 °F

High & Low Weather Summary for the Past Weeks

 TemperatureHumidityPressure
High99 °F (Aug 21, 4:53 PM)97% (Aug 10, 4:53 AM)30.29 "Hg (Aug 10, 4:53 AM)
Low66 °F (Aug 24, 5:53 AM)34% (Aug 21, 4:53 PM)29.79 "Hg (Aug 21, 4:53 PM)
Average83 °F68%30.07 "Hg
* Reported Aug 10 4:53 AM — Aug 25 4:53 AM, Fayetteville, Weather by CustomWeather, © 2016

Note: Actual official high and low records may vary slightly from our data, if they occured in-between our weather recording intervals... More about our weather records

Advertising

Fayetteville Weather History for the Previous 24 Hours

Scroll right to see more
 ConditionsComfort  
Time TempWeatherWind HumidityBarometerVisibility
4:53 AM
Thu, Aug 25
68 °FClear.No wind84%30.14 "Hg10 mi
3:53 AM68 °FClear.No wind84%30.14 "Hg10 mi
2:53 AM69 °FClear.No wind81%30.14 "Hg10 mi
1:53 AM70 °FClear.No wind81%30.16 "Hg10 mi
12:53 AM73 °FClear.No wind76%30.17 "Hg10 mi
11:53 PM
Wed, Aug 24
72 °FClear.3 mph76%30.19 "Hg10 mi
10:53 PM72 °FClear.3 mph76%30.19 "Hg10 mi
9:53 PM75 °FClear.5 mph69%30.18 "Hg10 mi
8:53 PM75 °FClear.3 mph71%30.17 "Hg10 mi
7:53 PM80 °FSunny.3 mph58%30.17 "Hg10 mi
6:53 PM83 °FSunny.5 mph53%30.17 "Hg10 mi
5:53 PM85 °FSunny.6 mph46%30.17 "Hg10 mi
4:53 PM86 °FSunny.8 mph45%30.18 "Hg10 mi
3:53 PM89 °FSunny.7 mph41%30.19 "Hg10 mi
2:53 PM88 °FSunny.8 mph43%30.22 "Hg10 mi
1:53 PM86 °FScattered clouds.6 mph45%30.24 "Hg10 mi
12:53 PM87 °FScattered clouds.7 mph45%30.26 "Hg10 mi
11:53 AM83 °FPassing clouds.No wind48%30.27 "Hg10 mi
10:53 AM82 °FSunny.6 mph46%30.28 "Hg10 mi
9:53 AM77 °FPartly sunny.5 mph58%30.29 "Hg10 mi
8:53 AM73 °FScattered clouds.6 mph71%30.28 "Hg10 mi
7:53 AM69 °FOvercast.5 mph90%30.27 "Hg10 mi
6:53 AM67 °FClear.3 mph90%30.26 "Hg10 mi
Weather by CustomWeather, © 2016

See weather overviewHow to use our weather pages